When you browse on this site, cookies collect data to enhance your experience and personalize the content and advertising you see.
Visit our Privacy Policy to learn more. By continuing to use the site, you agree to this use of cookies and data.

Meteo pe oră la Dziadowki

Astăzi, 26 Septembrie, Sâmbătă

Timp Temperatura Precipitaţii Vânt Presiune Umiditate
00:00 +17°C° 0.4 mm 3 m/s 725 mmHg 87%
01:00 +18°C° 0 mm 3 m/s 724 mmHg 82%
02:00 +18°C° 0.3 mm 4 m/s 724 mmHg 82%
03:00 +18°C° 0.3 mm 4 m/s 723 mmHg 81%
04:00 +17°C° 0.3 mm 5 m/s 723 mmHg 80%
05:00 +17°C° 0 mm 5 m/s 722 mmHg 77%
06:00 +17°C° 0 mm 6 m/s 722 mmHg 75%
07:00 +18°C° 0 mm 7 m/s 721 mmHg 72%
08:00 +18°C° 0.1 mm 7 m/s 722 mmHg 69%
09:00 +20°C° 0.1 mm 8 m/s 722 mmHg 67%
10:00 +21°C° 0.1 mm 8 m/s 722 mmHg 64%
11:00 +20°C° 0.8 mm 7 m/s 722 mmHg 70%
12:00 +19°C° 0.8 mm 6 m/s 723 mmHg 77%
13:00 +18°C° 0.8 mm 4 m/s 723 mmHg 83%
14:00 +18°C° 0.4 mm 4 m/s 723 mmHg 81%
15:00 +17°C° 0.4 mm 4 m/s 724 mmHg 79%
16:00 +17°C° 0.4 mm 4 m/s 724 mmHg 78%
17:00 +15°C° 0.1 mm 4 m/s 725 mmHg 78%
18:00 +14°C° 0.1 mm 4 m/s 725 mmHg 79%
19:00 +13°C° 0.1 mm 3 m/s 726 mmHg 79%
20:00 +13°C° 0.3 mm 3 m/s 726 mmHg 81%
21:00 +12°C° 0.3 mm 3 m/s 726 mmHg 83%
22:00 +12°C° 0.3 mm 3 m/s 727 mmHg 84%
23:00 +11°C° 0.5 mm 4 m/s 726 mmHg 85%

Mâine, 27 Septembrie, Duminică

Timp Temperatura Precipitaţii Vânt Presiune Umiditate
00:00 +10°C° 0.5 mm 5 m/s 726 mmHg 85%
01:00 +9°C° 0.5 mm 5 m/s 726 mmHg 85%
02:00 +9°C° 1.5 mm 6 m/s 726 mmHg 87%
03:00 +9°C° 1.5 mm 6 m/s 726 mmHg 89%
04:00 +8°C° 1.5 mm 6 m/s 726 mmHg 91%
05:00 +8°C° 2.2 mm 6 m/s 726 mmHg 91%
06:00 +8°C° 2.2 mm 6 m/s 726 mmHg 91%
07:00 +8°C° 2.2 mm 7 m/s 726 mmHg 91%
08:00 +8°C° 1.4 mm 6 m/s 727 mmHg 89%
09:00 +8°C° 1.4 mm 6 m/s 728 mmHg 88%
10:00 +8°C° 1.4 mm 6 m/s 728 mmHg 86%
11:00 +9°C° 0.5 mm 6 m/s 729 mmHg 82%
12:00 +9°C° 0.5 mm 6 m/s 729 mmHg 79%
13:00 +10°C° 0.5 mm 6 m/s 730 mmHg 76%
14:00 +10°C° 0.1 mm 5 m/s 731 mmHg 75%
15:00 +10°C° 0.1 mm 5 m/s 731 mmHg 74%
16:00 +12°C° 0.1 mm 4 m/s 732 mmHg 73%
17:00 +11°C° 0 mm 4 m/s 732 mmHg 76%
18:00 +10°C° 0 mm 4 m/s 733 mmHg 78%
19:00 +9°C° 0 mm 3 m/s 734 mmHg 80%
20:00 +9°C° 0 mm 3 m/s 734 mmHg 80%
21:00 +9°C° 0 mm 3 m/s 735 mmHg 79%
22:00 +9°C° 0 mm 3 m/s 736 mmHg 79%
23:00 +8°C° 0 mm 3 m/s 736 mmHg 79%

Poimâine, 28 Septembrie, Luni

Timp Temperatura Precipitaţii Vânt Presiune Umiditate
00:00 +8°C° 0 mm 3 m/s 736 mmHg 79%
01:00 +8°C° 0 mm 2 m/s 736 mmHg 78%
02:00 +7°C° 0 mm 3 m/s 736 mmHg 80%
03:00 +7°C° 0 mm 3 m/s 737 mmHg 82%
04:00 +7°C° 0 mm 3 m/s 737 mmHg 84%
05:00 +8°C° 0 mm 3 m/s 737 mmHg 82%
06:00 +8°C° 0 mm 3 m/s 737 mmHg 79%
07:00 +8°C° 0 mm 4 m/s 737 mmHg 77%
08:00 +8°C° 0.2 mm 4 m/s 737 mmHg 77%
09:00 +8°C° 0.2 mm 4 m/s 737 mmHg 77%
10:00 +10°C° 0.2 mm 4 m/s 737 mmHg 77%
11:00 +10°C° 0.1 mm 4 m/s 737 mmHg 76%
12:00 +10°C° 0.1 mm 5 m/s 736 mmHg 74%
13:00 +11°C° 0.1 mm 6 m/s 736 mmHg 73%
14:00 +12°C° 0 mm 5 m/s 736 mmHg 75%
15:00 +13°C° 0 mm 5 m/s 736 mmHg 76%
16:00 +13°C° 0 mm 4 m/s 736 mmHg 78%
17:00 +13°C° 0 mm 4 m/s 736 mmHg 81%
18:00 +12°C° 0 mm 4 m/s 736 mmHg 84%
19:00 +12°C° 0 mm 3 m/s 736 mmHg 87%
20:00 +11°C° 0 mm 3 m/s 736 mmHg 88%
21:00 +12°C° 0 mm 2 m/s 736 mmHg 89%
22:00 +12°C° 0 mm 2 m/s 736 mmHg 90%
23:00 +11°C° 0 mm 1 m/s 736 mmHg 90%

29 Septembrie, Marţi

Timp Temperatura Precipitaţii Vânt Presiune Umiditate
00:00 +11°C° 0 mm 1 m/s 736 mmHg 90%
01:00 +10°C° 0 mm 0 m/s 736 mmHg 91%
02:00 +11°C° 0 mm 1 m/s 736 mmHg 91%
03:00 +11°C° 0 mm 1 m/s 736 mmHg 91%
04:00 +11°C° 0 mm 1 m/s 735 mmHg 91%
05:00 +11°C° 0 mm 1 m/s 736 mmHg 91%
06:00 +10°C° 0 mm 2 m/s 736 mmHg 91%
07:00 +10°C° 0 mm 2 m/s 736 mmHg 91%
08:00 +12°C° 0 mm 2 m/s 736 mmHg 89%
09:00 +11°C° 0 mm 3 m/s 736 mmHg 88%
10:00 +12°C° 0 mm 3 m/s 736 mmHg 86%
11:00 +12°C° 0 mm 3 m/s 736 mmHg 84%
12:00 +13°C° 0 mm 4 m/s 736 mmHg 83%
13:00 +14°C° 0 mm 4 m/s 736 mmHg 81%
14:00 +13°C° 0 mm 4 m/s 736 mmHg 83%
15:00 +13°C° 0 mm 4 m/s 736 mmHg 85%
16:00 +12°C° 0 mm 4 m/s 736 mmHg 87%
17:00 +12°C° 0.1 mm 3 m/s 736 mmHg 88%
18:00 +12°C° 0.1 mm 3 m/s 737 mmHg 90%
19:00 +12°C° 0.1 mm 3 m/s 737 mmHg 91%
20:00 +12°C° 0.1 mm 3 m/s 737 mmHg 92%
21:00 +12°C° 0.1 mm 3 m/s 737 mmHg 93%
22:00 +12°C° 0.1 mm 3 m/s 737 mmHg 94%
23:00 +12°C° 0.1 mm 3 m/s 737 mmHg 94%

30 Septembrie, Miercuri

Timp Temperatura Precipitaţii Vânt Presiune Umiditate
00:00 +12°C° 0.1 mm 3 m/s 737 mmHg 94%
01:00 +12°C° 0.1 mm 3 m/s 737 mmHg 95%
02:00 +12°C° 0.1 mm 3 m/s 736 mmHg 95%
03:00 +12°C° 0.1 mm 3 m/s 736 mmHg 95%
04:00 +11°C° 0.1 mm 3 m/s 736 mmHg 95%
05:00 +12°C° 0.1 mm 3 m/s 736 mmHg 95%
06:00 +12°C° 0.1 mm 3 m/s 736 mmHg 95%
07:00 +12°C° 0.1 mm 3 m/s 736 mmHg 95%
08:00 +12°C° 0.1 mm 3 m/s 736 mmHg 94%
09:00 +12°C° 0.1 mm 3 m/s 736 mmHg 92%
10:00 +13°C° 0.1 mm 3 m/s 736 mmHg 91%
11:00 +13°C° 0.1 mm 4 m/s 735 mmHg 90%
12:00 +13°C° 0.1 mm 4 m/s 735 mmHg 88%
13:00 +14°C° 0.1 mm 5 m/s 735 mmHg 87%
14:00 +13°C° 1 mm 5 m/s 735 mmHg 89%
15:00 +13°C° 1 mm 5 m/s 734 mmHg 91%
16:00 +13°C° 1 mm 5 m/s 734 mmHg 93%
17:00 +13°C° 2 mm 5 m/s 734 mmHg 94%
18:00 +13°C° 2 mm 5 m/s 734 mmHg 94%
19:00 +13°C° 2 mm 5 m/s 734 mmHg 95%
20:00 +12°C° 0.6 mm 5 m/s 734 mmHg 95%
21:00 +12°C° 0.6 mm 4 m/s 734 mmHg 95%
22:00 +12°C° 0.6 mm 3 m/s 734 mmHg 94%
23:00 +12°C° 0.2 mm 3 m/s 733 mmHg 94%

1 Octombrie, Joi

Timp Temperatura Precipitaţii Vânt Presiune Umiditate
00:00 +11°C° 0.2 mm 3 m/s 733 mmHg 94%
01:00 +11°C° 0.2 mm 3 m/s 732 mmHg 94%
02:00 +11°C° 0.4 mm 3 m/s 732 mmHg 95%
03:00 +11°C° 0.4 mm 3 m/s 732 mmHg 95%
04:00 +11°C° 0.4 mm 3 m/s 732 mmHg 95%
05:00 +11°C° 0.9 mm 3 m/s 731 mmHg 95%
06:00 +11°C° 0.9 mm 3 m/s 731 mmHg 95%
07:00 +11°C° 0.9 mm 3 m/s 731 mmHg 95%
08:00 +11°C° 0.4 mm 3 m/s 731 mmHg 95%
09:00 +11°C° 0.4 mm 3 m/s 731 mmHg 94%
10:00 +11°C° 0.4 mm 3 m/s 731 mmHg 94%
11:00 +11°C° 0.4 mm 3 m/s 731 mmHg 94%
12:00 +12°C° 0.4 mm 2 m/s 731 mmHg 95%
13:00 +12°C° 0.4 mm 2 m/s 730 mmHg 95%
14:00 +12°C° 0.6 mm 2 m/s 730 mmHg 95%
15:00 +12°C° 0.6 mm 2 m/s 730 mmHg 95%
16:00 +12°C° 0.6 mm 1 m/s 730 mmHg 95%
17:00 +12°C° 0.2 mm 1 m/s 730 mmHg 96%
18:00 +12°C° 0.2 mm 1 m/s 730 mmHg 96%
19:00 +12°C° 0.2 mm 1 m/s 731 mmHg 96%
20:00 +12°C° 0.1 mm 1 m/s 730 mmHg 96%
21:00 +11°C° 0.1 mm 0 m/s 730 mmHg 96%
22:00 +11°C° 0.1 mm 0 m/s 730 mmHg 96%
23:00 +12°C° 0.1 mm 1 m/s 730 mmHg 96%
Arată mai mult